Zurück zum Katalog

STARLINK-30900

AktivKommunikationVLEO
NORAD 58423·PAYLOAD·🇺🇸 United States

Gestartet Nov 22, 2023 von Cape Canaveral Space Force Station

Loading…

Nächste Überflüge (nächste 24 Stunden)

TLE

AktuellSource: CelesTrak SupGP

Epoche: Sep 15, 2026, 02:37 UTC

1 58423C 23180X   26258.10951389 -.00065108  00000+0 -23580-2 0  2584
2 58423  43.0006  62.6261 0001523 263.7199 208.8758 15.27613070    19

Verfolge STARLINK-30900 in Echtzeit mit AllMySat

Download on the App Store